Home > Products > Valid Products > MTR

000
SAUS44 KMRX 272155
MTRGDP
METAR KGDP 272151Z AUTO 25017G26KT 10SM CLR 23/M02 A3022 RMK AO2 PK
WND 25029/2132 SLP178 T02281022





000
SAUS44 KMRX 272057 COR
MTRGDP
METAR KGDP 272051Z AUTO 24021G30KT 10SM CLR 22/M02 A3024 RMK AO2 PK
WND 24030/2048 SLP187 T02221022 58022





000
SAUS44 KMRX 272056 COR
MTRGDP
METAR KGDP 272051Z AUTO 24021G30KT 10SM CLR 22/M02 A3024 RMK AO2 PK
WND 24030/2048 SLP187 T02221022 58022





000
SAUS44 KMRX 272056 COR
MTRGDP
METAR KGDP 272051Z AUTO 24021G30KT 10SM CLR 22/M02 A3024 RMK AO2 PK
WND 24030/2048 SLP187 T02221022 58022





000
SAUS44 KMRX 272055
MTRGDP
METAR KGDP 272051Z AUTO 24021G30KT 10SM CLR 22/M02 A3024 RMK AO2 PK
WND 24030/2048 SLP187 T02221022 58022





000
SAUS44 KMRX 271957 COR
MTRGDP
METAR KGDP 271951Z AUTO 25021G30KT 10SM CLR 21/M03 A3027 RMK AO2 PK
WND 24030/1923 SLP199 T02111028





000
SAUS44 KMRX 271956 COR
MTRGDP
METAR KGDP 271951Z AUTO 25021G30KT 10SM CLR 21/M03 A3027 RMK AO2 PK
WND 24030/1923 SLP199 T02111028





000
SAUS44 KMRX 271956 COR
MTRGDP
METAR KGDP 271951Z AUTO 25021G30KT 10SM CLR 21/M03 A3027 RMK AO2 PK
WND 24030/1923 SLP199 T02111028





000
SAUS44 KMRX 271955
MTRGDP
METAR KGDP 271951Z AUTO 25021G30KT 10SM CLR 21/M03 A3027 RMK AO2 PK
WND 24030/1923 SLP199 T02111028





000
SAUS44 KMRX 271955
MTRGDP
METAR KGDP 271951Z AUTO 25021G30KT 10SM CLR 21/M03 A3027 RMK AO2 PK
WND 24030/1923 SLP199 T02111028





000
SAUS44 KMRX 271857 COR
MTRGDP
METAR KGDP 271851Z AUTO 25020G27KT 10SM CLR 19/M03 A3030 RMK AO2 PK
WND 25027/1823 SLP212 T01941028





000
SAUS44 KMRX 271857 COR
MTRGDP
METAR KGDP 271851Z AUTO 25020G27KT 10SM CLR 19/M03 A3030 RMK AO2 PK
WND 25027/1823 SLP212 T01941028





000
SAUS44 KMRX 271856 COR
MTRGDP
METAR KGDP 271851Z AUTO 25020G27KT 10SM CLR 19/M03 A3030 RMK AO2 PK
WND 25027/1823 SLP212 T01941028





000
SAUS44 KMRX 271856 COR
MTRGDP
METAR KGDP 271851Z AUTO 25020G27KT 10SM CLR 19/M03 A3030 RMK AO2 PK
WND 25027/1823 SLP212 T01941028





000
SAUS44 KMRX 271855
MTRGDP
METAR KGDP 271851Z AUTO 25020G27KT 10SM CLR 19/M03 A3030 RMK AO2 PK
WND 25027/1823 SLP212 T01941028





000
SAUS44 KMRX 271855
MTRGDP
METAR KGDP 271851Z AUTO 25020G27KT 10SM CLR 19/M03 A3030 RMK AO2 PK
WND 25027/1823 SLP212 T01941028





000
SAUS44 KMRX 271755
MTRGDP
METAR KGDP 271751Z AUTO 25019KT 10SM CLR 18/M02 A3031 RMK AO2 SLP217
T01831022 10183 20067 50002





000
SAUS44 KMRX 271755
MTRGDP
METAR KGDP 271751Z AUTO 25019KT 10SM CLR 18/M02 A3031 RMK AO2 SLP217
T01831022 10183 20067 50002





000
SAUS44 KMRX 271657 COR
MTRGDP
METAR KGDP 271651Z AUTO 23017KT 10SM CLR 13/00 A3033 RMK AO2 SLP231
T01330000





000
SAUS44 KMRX 271657 COR
MTRGDP
METAR KGDP 271651Z AUTO 23017KT 10SM CLR 13/00 A3033 RMK AO2 SLP231
T01330000





000
SAUS44 KMRX 271656 COR
MTRGDP
METAR KGDP 271651Z AUTO 23017KT 10SM CLR 13/00 A3033 RMK AO2 SLP231
T01330000





000
SAUS44 KMRX 271656 COR
MTRGDP
METAR KGDP 271651Z AUTO 23017KT 10SM CLR 13/00 A3033 RMK AO2 SLP231
T01330000





000
SAUS44 KMRX 271655
MTRGDP
METAR KGDP 271651Z AUTO 23017KT 10SM CLR 13/00 A3033 RMK AO2 SLP231
T01330000





000
SAUS44 KMRX 271556
MTRGDP
METAR KGDP 271551Z AUTO 23017KT 10SM CLR 11/M01 A3031 RMK AO2 SLP231
T01061006





000
SAUS44 KMRX 271456 COR
MTRGDP
METAR KGDP 271451Z AUTO 25017KT 10SM CLR 10/M02 A3031 RMK AO2 SLP230
T01001017 51012





000
SAUS44 KMRX 271456 COR
MTRGDP
METAR KGDP 271451Z AUTO 25017KT 10SM CLR 10/M02 A3031 RMK AO2 SLP230
T01001017 51012





000
SAUS44 KMRX 271455
MTRGDP
METAR KGDP 271451Z AUTO 25017KT 10SM CLR 10/M02 A3031 RMK AO2 SLP230
T01001017 51012





000
SAUS44 KMRX 271356
MTRGDP
METAR KGDP 271351Z AUTO 26016KT 10SM CLR 08/M03 A3029 RMK AO2 SLP228
T00781028





000
SAUS44 KMRX 271356
MTRGDP
METAR KGDP 271351Z AUTO 26016KT 10SM CLR 08/M03 A3029 RMK AO2 SLP228
T00781028





000
SAUS44 KMRX 271255
MTRGDP
METAR KGDP 271251Z AUTO 24015KT 10SM CLR 07/M03 A3028 RMK AO2 SLP222
T00721033





000
SAUS44 KMRX 271155
MTRGDP
METAR KGDP 271151Z AUTO 25014KT 10SM CLR 07/M03 A3027 RMK AO2 SLP214
T00721033 10089 20067 55003





000
SAUS44 KMRX 271155
MTRGDP
METAR KGDP 271151Z AUTO 25014KT 10SM CLR 07/M03 A3027 RMK AO2 SLP214
T00721033 10089 20067 55003





000
SAUS44 KMRX 271056 COR
MTRGDP
METAR KGDP 271051Z AUTO 23013KT 10SM CLR 08/M04 A3026 RMK AO2 SLP213
T00831039





000
SAUS44 KMRX 271056 COR
MTRGDP
METAR KGDP 271051Z AUTO 23013KT 10SM CLR 08/M04 A3026 RMK AO2 SLP213
T00831039





000
SAUS44 KMRX 271055
MTRGDP
METAR KGDP 271051Z AUTO 23013KT 10SM CLR 08/M04 A3026 RMK AO2 SLP213
T00831039





000
SAUS44 KMRX 271055
MTRGDP
METAR KGDP 271051Z AUTO 23013KT 10SM CLR 08/M04 A3026 RMK AO2 SLP213
T00831039





000
SAUS44 KMRX 270957 COR
MTRGDP
METAR KGDP 270951Z AUTO 23015KT 10SM CLR 08/M03 A3027 RMK AO2 SLP214
T00781033





000
SAUS44 KMRX 270956 COR
MTRGDP
METAR KGDP 270951Z AUTO 23015KT 10SM CLR 08/M03 A3027 RMK AO2 SLP214
T00781033





000
SAUS44 KMRX 270955
MTRGDP
METAR KGDP 270951Z AUTO 23015KT 10SM CLR 08/M03 A3027 RMK AO2 SLP214
T00781033





000
SAUS44 KMRX 270856
MTRGDP
METAR KGDP 270851Z AUTO 24016KT 10SM CLR 08/M03 A3028 RMK AO2 SLP220
T00781033 58005





000
SAUS44 KMRX 270757 COR
MTRGDP
METAR KGDP 270751Z AUTO 25015KT 10SM CLR 08/M03 A3029 RMK AO2 SLP226
T00781033





000
SAUS44 KMRX 270757 COR
MTRGDP
METAR KGDP 270751Z AUTO 25015KT 10SM CLR 08/M03 A3029 RMK AO2 SLP226
T00781033





000
SAUS44 KMRX 270756 COR
MTRGDP
METAR KGDP 270751Z AUTO 25015KT 10SM CLR 08/M03 A3029 RMK AO2 SLP226
T00781033





000
SAUS44 KMRX 270756 COR
MTRGDP
METAR KGDP 270751Z AUTO 25015KT 10SM CLR 08/M03 A3029 RMK AO2 SLP226
T00781033





000
SAUS44 KMRX 270755
MTRGDP
METAR KGDP 270751Z AUTO 25015KT 10SM CLR 08/M03 A3029 RMK AO2 SLP226
T00781033





000
SAUS44 KMRX 270657 COR
MTRGDP
METAR KGDP 270651Z AUTO 24013KT 10SM CLR 08/M03 A3029 RMK AO2 SLP227
T00831033 401560011





000
SAUS44 KMRX 270657 COR
MTRGDP
METAR KGDP 270651Z AUTO 24013KT 10SM CLR 08/M03 A3029 RMK AO2 SLP227
T00831033 401560011





000
SAUS44 KMRX 270656 COR
MTRGDP
METAR KGDP 270651Z AUTO 24013KT 10SM CLR 08/M03 A3029 RMK AO2 SLP227
T00831033 401560011





000
SAUS44 KMRX 270656 COR
MTRGDP
METAR KGDP 270651Z AUTO 24013KT 10SM CLR 08/M03 A3029 RMK AO2 SLP227
T00831033 401560011





000
SAUS44 KMRX 270655
MTRGDP
METAR KGDP 270651Z AUTO 24013KT 10SM CLR 08/M03 A3029 RMK AO2 SLP227
T00831033 401560011





000
SAUS44 KMRX 270655
MTRGDP
METAR KGDP 270651Z AUTO 24013KT 10SM CLR 08/M03 A3029 RMK AO2 SLP227
T00831033 401560011





000
SAUS44 KMRX 270556
MTRGDP
METAR KGDP 270551Z AUTO 24010KT 10SM CLR 09/M04 A3029 RMK AO2 SLP228
T00891039 10150 20083 51003





000
SAUS44 KMRX 270556
MTRGDP
METAR KGDP 270551Z AUTO 24010KT 10SM CLR 09/M04 A3029 RMK AO2 SLP228
T00891039 10150 20083 51003





000
SAUS44 KMRX 270457 COR
MTRGDP
METAR KGDP 270451Z AUTO 24013KT 10SM CLR 09/M04 A3029 RMK AO2 SLP231
T00941044





000
SAUS44 KMRX 270457 COR
MTRGDP
METAR KGDP 270451Z AUTO 24013KT 10SM CLR 09/M04 A3029 RMK AO2 SLP231
T00941044





000
SAUS44 KMRX 270456 COR
MTRGDP
METAR KGDP 270451Z AUTO 24013KT 10SM CLR 09/M04 A3029 RMK AO2 SLP231
T00941044





000
SAUS44 KMRX 270456 COR
MTRGDP
METAR KGDP 270451Z AUTO 24013KT 10SM CLR 09/M04 A3029 RMK AO2 SLP231
T00941044





000
SAUS44 KMRX 270455
MTRGDP
METAR KGDP 270451Z AUTO 24013KT 10SM CLR 09/M04 A3029 RMK AO2 SLP231
T00941044





000
SAUS44 KMRX 270455
MTRGDP
METAR KGDP 270451Z AUTO 24013KT 10SM CLR 09/M04 A3029 RMK AO2 SLP231
T00941044





000
SAUS44 KMRX 270355
MTRGDP
METAR KGDP 270351Z AUTO 24009KT 10SM CLR 10/M05 A3030 RMK AO2 SLP232
T01001050





000
SAUS44 KMRX 270257 COR
MTRGDP
METAR KGDP 270251Z AUTO 19006KT 10SM CLR 10/M05 A3028 RMK AO2 SLP231
T01001050 53008





000
SAUS44 KMRX 270256 COR
MTRGDP
METAR KGDP 270251Z AUTO 19006KT 10SM CLR 10/M05 A3028 RMK AO2 SLP231
T01001050 53008





000
SAUS44 KMRX 270256 COR
MTRGDP
METAR KGDP 270251Z AUTO 19006KT 10SM CLR 10/M05 A3028 RMK AO2 SLP231
T01001050 53008





000
SAUS44 KMRX 270255
MTRGDP
METAR KGDP 270251Z AUTO 19006KT 10SM CLR 10/M05 A3028 RMK AO2 SLP231
T01001050 53008





000
SAUS44 KMRX 270255
MTRGDP
METAR KGDP 270251Z AUTO 19006KT 10SM CLR 10/M05 A3028 RMK AO2 SLP231
T01001050 53008





000
SAUS44 KMRX 270157 COR
MTRGDP
METAR KGDP 270151Z AUTO 24009KT 10SM CLR 11/M04 A3027 RMK AO2 SLP233
T01061044





000
SAUS44 KMRX 270156 COR
MTRGDP
METAR KGDP 270151Z AUTO 24009KT 10SM CLR 11/M04 A3027 RMK AO2 SLP233
T01061044





000
SAUS44 KMRX 270155
MTRGDP
METAR KGDP 270151Z AUTO 24009KT 10SM CLR 11/M04 A3027 RMK AO2 SLP233
T01061044





000
SAUS44 KMRX 270155
MTRGDP
METAR KGDP 270151Z AUTO 24009KT 10SM CLR 11/M04 A3027 RMK AO2 SLP233
T01061044





000
SAUS44 KMRX 270057 COR
MTRGDP
METAR KGDP 270051Z AUTO 23011KT 10SM CLR 13/M04 A3026 RMK AO2 SLP226
T01281039





000
SAUS44 KMRX 270057 COR
MTRGDP
METAR KGDP 270051Z AUTO 23011KT 10SM CLR 13/M04 A3026 RMK AO2 SLP226
T01281039





000
SAUS44 KMRX 270056 COR
MTRGDP
METAR KGDP 270051Z AUTO 23011KT 10SM CLR 13/M04 A3026 RMK AO2 SLP226
T01281039





000
SAUS44 KMRX 270056 COR
MTRGDP
METAR KGDP 270051Z AUTO 23011KT 10SM CLR 13/M04 A3026 RMK AO2 SLP226
T01281039





000
SAUS44 KMRX 270055
MTRGDP
METAR KGDP 270051Z AUTO 23011KT 10SM CLR 13/M04 A3026 RMK AO2 SLP226
T01281039





000
SAUS44 KMRX 270055
MTRGDP
METAR KGDP 270051Z AUTO 23011KT 10SM CLR 13/M04 A3026 RMK AO2 SLP226
T01281039





000
SAUS44 KMRX 270005 COR
MTROQT
METAR KOQT 262353Z AUTO 34008G16KT 6SM RA SCT021 OVC030 13/09 A2982
RMK AO2 RAB2257E17B26 SLP093 P0001 60021 T01280094 10256 20128 53029





000
SAUS44 KMRX 270005 COR
MTROQT
METAR KOQT 262353Z AUTO 34008G16KT 6SM RA SCT021 OVC030 13/09 A2982
RMK AO2 RAB2257E17B26 SLP093 P0001 60021 T01280094 10256 20128 53029





000
SAUS44 KMRX 270004 COR
MTROQT
METAR KOQT 262353Z AUTO 34008G16KT 6SM RA SCT021 OVC030 13/09 A2982
RMK AO2 RAB2257E17B26 SLP093 P0001 60021 T01280094 10256 20128 53029





000
SAUS44 KMRX 270004 COR
MTROQT
METAR KOQT 262353Z AUTO 34008G16KT 6SM RA SCT021 OVC030 13/09 A2982
RMK AO2 RAB2257E17B26 SLP093 P0001 60021 T01280094 10256 20128 53029





000
SAUS44 KMRX 270003 COR
MTROQT
METAR KOQT 262353Z AUTO 34008G16KT 6SM RA SCT021 OVC030 13/09 A2982
RMK AO2 RAB2257E17B26 SLP093 P0001 60021 T01280094 10256 20128 53029





000
SAUS44 KMRX 270003 COR
MTROQT
METAR KOQT 262353Z AUTO 34008G16KT 6SM RA SCT021 OVC030 13/09 A2982
RMK AO2 RAB2257E17B26 SLP093 P0001 60021 T01280094 10256 20128 53029





000
SAUS44 KMRX 262356
MTRGDP
METAR KGDP 262351Z AUTO 23009KT 10SM CLR 14/M04 A3025 RMK AO2 SLP219
T01391039 10156 20089 56010





000
SAUS44 KMRX 262356
MTRGDP
METAR KGDP 262351Z AUTO 23009KT 10SM CLR 14/M04 A3025 RMK AO2 SLP219
T01391039 10156 20089 56010





000
SAUS44 KMRX 262257 COR
MTRGDP
METAR KGDP 262251Z AUTO VRB03KT 10SM CLR 13/M04 A3025 RMK AO2 SLP221
T01281044





000
SAUS44 KMRX 262257 COR
MTRGDP
METAR KGDP 262251Z AUTO VRB03KT 10SM CLR 13/M04 A3025 RMK AO2 SLP221
T01281044





000
SAUS44 KMRX 262256 COR
MTRGDP
METAR KGDP 262251Z AUTO VRB03KT 10SM CLR 13/M04 A3025 RMK AO2 SLP221
T01281044





000
SAUS44 KMRX 262255
MTRGDP
METAR KGDP 262251Z AUTO VRB03KT 10SM CLR 13/M04 A3025 RMK AO2 SLP221
T01281044





000
SAUS44 KMRX 262157 COR
MTRGDP
METAR KGDP 262151Z AUTO 00000KT 10SM CLR 13/M05 A3027 RMK AO2 SLP228
T01281050





000
SAUS44 KMRX 262156 COR
MTRGDP
METAR KGDP 262151Z AUTO 00000KT 10SM CLR 13/M05 A3027 RMK AO2 SLP228
T01281050





000
SAUS44 KMRX 262155
MTRGDP
METAR KGDP 262151Z AUTO 00000KT 10SM CLR 13/M05 A3027 RMK AO2 SLP228
T01281050





000
SAUS44 KMRX 262057 COR
MTRGDP
METAR KGDP 262051Z AUTO VRB05G16KT 10SM CLR 12/M05 A3029 RMK AO2
SLP233 T01171050 56013





000
SAUS44 KMRX 262057 COR
MTRGDP
METAR KGDP 262051Z AUTO VRB05G16KT 10SM CLR 12/M05 A3029 RMK AO2
SLP233 T01171050 56013





000
SAUS44 KMRX 262056 COR
MTRGDP
METAR KGDP 262051Z AUTO VRB05G16KT 10SM CLR 12/M05 A3029 RMK AO2
SLP233 T01171050 56013





000
SAUS44 KMRX 262056 COR
MTRGDP
METAR KGDP 262051Z AUTO VRB05G16KT 10SM CLR 12/M05 A3029 RMK AO2
SLP233 T01171050 56013





000
SAUS44 KMRX 262055
MTRGDP
METAR KGDP 262051Z AUTO VRB05G16KT 10SM CLR 12/M05 A3029 RMK AO2
SLP233 T01171050 56013





000
SAUS44 KMRX 262055
MTRGDP
METAR KGDP 262051Z AUTO VRB05G16KT 10SM CLR 12/M05 A3029 RMK AO2
SLP233 T01171050 56013





000
SAUS44 KMRX 261957 COR
MTRGDP
METAR KGDP 261951Z AUTO 07011KT 10SM CLR 11/M06 A3031 RMK AO2 SLP240
T01111061





000
SAUS44 KMRX 261956
MTRGDP
METAR KGDP 261951Z AUTO 07011KT 10SM CLR 11/M06 A3031 RMK AO2 SLP240
T01111061





000
SAUS44 KMRX 261956
MTRGDP
METAR KGDP 261951Z AUTO 07011KT 10SM CLR 11/M06 A3031 RMK AO2 SLP240
T01111061





000
SAUS44 KMRX 261856
MTRGDP
METAR KGDP 261851Z AUTO 07020KT 10SM CLR 10/M06 A3031 RMK AO2 PK WND
06028/1806 SLP241 T01001056





000
SAUS44 KMRX 261856
MTRGDP
METAR KGDP 261851Z AUTO 07020KT 10SM CLR 10/M06 A3031 RMK AO2 PK WND
06028/1806 SLP241 T01001056





000
SAUS44 KMRX 261757 COR
MTRGDP
METAR KGDP 261751Z AUTO 06022G30KT 10SM CLR 09/M06 A3033 RMK AO2 PK
WND 07032/1659 SLP245 T00941056 10100 20011 51014





000
SAUS44 KMRX 261757 COR
MTRGDP
METAR KGDP 261751Z AUTO 06022G30KT 10SM CLR 09/M06 A3033 RMK AO2 PK
WND 07032/1659 SLP245 T00941056 10100 20011 51014





000
SAUS44 KMRX 261756 COR
MTRGDP
METAR KGDP 261751Z AUTO 06022G30KT 10SM CLR 09/M06 A3033 RMK AO2 PK
WND 07032/1659 SLP245 T00941056 10100 20011 51014





000
SAUS44 KMRX 261756 COR
MTRGDP
METAR KGDP 261751Z AUTO 06022G30KT 10SM CLR 09/M06 A3033 RMK AO2 PK
WND 07032/1659 SLP245 T00941056 10100 20011 51014





000
SAUS44 KMRX 261755
MTRGDP
METAR KGDP 261751Z AUTO 06022G30KT 10SM CLR 09/M06 A3033 RMK AO2 PK
WND 07032/1659 SLP245 T00941056 10100 20011 51014





000
SAUS44 KMRX 261755
MTRGDP
METAR KGDP 261751Z AUTO 06022G30KT 10SM CLR 09/M06 A3033 RMK AO2 PK
WND 07032/1659 SLP245 T00941056 10100 20011 51014





000
SAUS44 KMRX 261655
MTRGDP
METAR KGDP 261651Z AUTO 07029G34KT 10SM CLR 08/M06 A3032 RMK AO2 PK
WND 06035/1624 SLP234 T00781061





000
SAUS44 KMRX 261651
MTRGDP
SPECI KGDP 261647Z AUTO 06026G31KT 5SM HZ CLR 08/M06 A3032 RMK AO2
PK WND 06035/1624





000
SAUS44 KMRX 261640
MTRGDP
SPECI KGDP 261636Z AUTO 06025G33KT 1 3/4SM HZ CLR 08/M06 A3032 RMK
AO2 PK WND 06035/1624 T00831056





000
SAUS44 KMRX 261556
MTRGDP
METAR KGDP 261551Z AUTO 05033G37KT 10SM CLR 07/M06 A3031 RMK AO2 PK
WND 05040/1456 SLP226 T00721056





000
SAUS44 KMRX 261457 COR
MTRGDP
METAR KGDP 261451Z AUTO 04034G38KT 4SM HZ CLR 06/M03 A3029 RMK AO2
PK WND 04038/1451 SLP220 T00561033 50013





000
SAUS44 KMRX 261456 COR
MTRGDP
METAR KGDP 261451Z AUTO 04034G38KT 4SM HZ CLR 06/M03 A3029 RMK AO2
PK WND 04038/1451 SLP220 T00561033 50013





000
SAUS44 KMRX 261455
MTRGDP
METAR KGDP 261451Z AUTO 04034G38KT 4SM HZ CLR 06/M03 A3029 RMK AO2
PK WND 04038/1451 SLP220 T00561033 50013





000
SAUS44 KMRX 261455
MTRGDP
METAR KGDP 261451Z AUTO 04034G38KT 4SM HZ CLR 06/M03 A3029 RMK AO2
PK WND 04038/1451 SLP220 T00561033 50013





000
SAUS44 KMRX 261451
MTRGDP
SPECI KGDP 261447Z AUTO 05033G37KT 1 1/2SM HZ CLR 06/M03 A3029 RMK
AO2 PK WND 05037/1446 VIS 1/4V5





000
SAUS44 KMRX 261356
MTRGDP
METAR KGDP 261351Z AUTO 05027KT 3SM HZ CLR 02/M01 A3027 RMK AO2 PK
WND 06033/1255 SLP222 T00221011





000
SAUS44 KMRX 261347
MTRGDP
SPECI KGDP 261343Z AUTO 06028KT 1 3/4SM BR CLR 02/M01 A3026 RMK AO2
PK WND 06033/1255 VIS 1/2V5 T00171006





000
SAUS44 KMRX 261257 COR
MTRGDP
METAR KGDP 261251Z AUTO 06030KT 10SM CLR 01/M02 A3024 RMK AO2 PK WND
05037/1153 SLP212 T00111017





000
SAUS44 KMRX 261257 COR
MTRGDP
METAR KGDP 261251Z AUTO 06030KT 10SM CLR 01/M02 A3024 RMK AO2 PK WND
05037/1153 SLP212 T00111017





000
SAUS44 KMRX 261256 COR
MTRGDP
METAR KGDP 261251Z AUTO 06030KT 10SM CLR 01/M02 A3024 RMK AO2 PK WND
05037/1153 SLP212 T00111017





000
SAUS44 KMRX 261256 COR
MTRGDP
METAR KGDP 261251Z AUTO 06030KT 10SM CLR 01/M02 A3024 RMK AO2 PK WND
05037/1153 SLP212 T00111017





000
SAUS44 KMRX 261255
MTRGDP
METAR KGDP 261251Z AUTO 06030KT 10SM CLR 01/M02 A3024 RMK AO2 PK WND
05037/1153 SLP212 T00111017





000
SAUS44 KMRX 261255
MTRGDP
METAR KGDP 261251Z AUTO 06030KT 10SM CLR 01/M02 A3024 RMK AO2 PK WND
05037/1153 SLP212 T00111017





000
SAUS44 KMRX 261157 COR
MTRGDP
METAR KGDP 261151Z AUTO 05034KT 10SM CLR 03/M02 A3022 RMK AO2 PK WND
05038/1103 SLP196 T00281017 10083 20022 51012





000
SAUS44 KMRX 261157 COR
MTRGDP
METAR KGDP 261151Z AUTO 05034KT 10SM CLR 03/M02 A3022 RMK AO2 PK WND
05038/1103 SLP196 T00281017 10083 20022 51012





000
SAUS44 KMRX 261156 COR
MTRGDP
METAR KGDP 261151Z AUTO 05034KT 10SM CLR 03/M02 A3022 RMK AO2 PK WND
05038/1103 SLP196 T00281017 10083 20022 51012





000
SAUS44 KMRX 261156 COR
MTRGDP
METAR KGDP 261151Z AUTO 05034KT 10SM CLR 03/M02 A3022 RMK AO2 PK WND
05038/1103 SLP196 T00281017 10083 20022 51012





000
SAUS44 KMRX 261155
MTRGDP
METAR KGDP 261151Z AUTO 05034KT 10SM CLR 03/M02 A3022 RMK AO2 PK WND
05038/1103 SLP196 T00281017 10083 20022 51012





000
SAUS44 KMRX 261155
MTRGDP
METAR KGDP 261151Z AUTO 05034KT 10SM CLR 03/M02 A3022 RMK AO2 PK WND
05038/1103 SLP196 T00281017 10083 20022 51012





000
SAUS44 KMRX 261055
MTRGDP
METAR KGDP 261051Z AUTO 05033KT 10SM CLR 03/M02 A3021 RMK AO2 PK WND
06037/1042 SLP193 T00281017





000
SAUS44 KMRX 261055
MTRGDP
METAR KGDP 261051Z AUTO 05033KT 10SM CLR 03/M02 A3021 RMK AO2 PK WND
06037/1042 SLP193 T00281017





000
SAUS44 KMRX 260956
MTRGDP
METAR KGDP 260951Z AUTO 06032G37KT 10SM CLR 03/M02 A3020 RMK AO2 PK
WND 06040/0853 SLP184 T00281017





000
SAUS44 KMRX 260857 COR
MTRGDP
METAR KGDP 260851Z AUTO 06034G39KT 10SM CLR 03/M02 A3018 RMK AO2 PK
WND 07043/0830 SLP176 T00331017 51018





000
SAUS44 KMRX 260857 COR
MTRGDP
METAR KGDP 260851Z AUTO 06034G39KT 10SM CLR 03/M02 A3018 RMK AO2 PK
WND 07043/0830 SLP176 T00331017 51018





000
SAUS44 KMRX 260856 COR
MTRGDP
METAR KGDP 260851Z AUTO 06034G39KT 10SM CLR 03/M02 A3018 RMK AO2 PK
WND 07043/0830 SLP176 T00331017 51018





000
SAUS44 KMRX 260856 COR
MTRGDP
METAR KGDP 260851Z AUTO 06034G39KT 10SM CLR 03/M02 A3018 RMK AO2 PK
WND 07043/0830 SLP176 T00331017 51018





000
SAUS44 KMRX 260855
MTRGDP
METAR KGDP 260851Z AUTO 06034G39KT 10SM CLR 03/M02 A3018 RMK AO2 PK
WND 07043/0830 SLP176 T00331017 51018





000
SAUS44 KMRX 260855
MTRGDP
METAR KGDP 260851Z AUTO 06034G39KT 10SM CLR 03/M02 A3018 RMK AO2 PK
WND 07043/0830 SLP176 T00331017 51018





000
SAUS44 KMRX 260755
MTRGDP
METAR KGDP 260751Z AUTO 06033KT 10SM CLR 04/M01 A3017 RMK AO2 PK WND
06042/0733 SLP169 T00441011





000
SAUS44 KMRX 260755
MTRGDP
METAR KGDP 260751Z AUTO 06033KT 10SM CLR 04/M01 A3017 RMK AO2 PK WND
06042/0733 SLP169 T00441011





000
SAUS44 KMRX 260655
MTRGDP
METAR KGDP 260651Z AUTO 06037G47KT 10SM CLR 07/M01 A3014 RMK AO2 PK
WND 05047/0647 SLP159 T00671011 402280067





000
SAUS44 KMRX 260655
MTRGDP
METAR KGDP 260651Z AUTO 06037G47KT 10SM CLR 07/M01 A3014 RMK AO2 PK
WND 05047/0647 SLP159 T00671011 402280067





000
SAUS44 KMRX 260556
MTRGDP
METAR KGDP 260551Z AUTO 07034KT 10SM CLR 08/M01 A3012 RMK AO2 PK WND
07037/0551 SLP148 T00831006 10189 20083 50007





000
SAUS44 KMRX 260556
MTRGDP
METAR KGDP 260551Z AUTO 07034KT 10SM CLR 08/M01 A3012 RMK AO2 PK WND
07037/0551 SLP148 T00831006 10189 20083 50007





000
SAUS44 KMRX 260455
MTRGDP
METAR KGDP 260451Z AUTO 03022G30KT 10SM CLR 12/M01 A3014 RMK AO2 PK
WND 03035/0440 WSHFT 0406 SLP151 T01171011





000
SAUS44 KMRX 260430
MTRGDP
SPECI KGDP 260426Z AUTO 02018G29KT 10SM CLR 14/M04 A3014 RMK AO2 PK
WND 35029/0419 WSHFT 0406 T01441039





000
SAUS44 KMRX 260422
MTRGDP
SPECI KGDP 260418Z AUTO 35018G27KT 10SM CLR 16/M05 A3014 RMK AO2 PK
WND 35027/0418 WSHFT 0358 T01561050





000
SAUS44 KMRX 260422
MTRGDP
SPECI KGDP 260418Z AUTO 35018G27KT 10SM CLR 16/M05 A3014 RMK AO2 PK
WND 35027/0418 WSHFT 0358 T01561050





000
SAUS44 KMRX 260357 COR
MTRGDP
METAR KGDP 260351Z AUTO 26015KT 10SM CLR 15/M06 A3011 RMK AO2 SLP145
T01501056





000
SAUS44 KMRX 260356 COR
MTRGDP
METAR KGDP 260351Z AUTO 26015KT 10SM CLR 15/M06 A3011 RMK AO2 SLP145
T01501056





000
SAUS44 KMRX 260355
MTRGDP
METAR KGDP 260351Z AUTO 26015KT 10SM CLR 15/M06 A3011 RMK AO2 SLP145
T01501056





000
SAUS44 KMRX 260255
MTRGDP
METAR KGDP 260251Z AUTO 25014KT 10SM CLR 15/M06 A3009 RMK AO2 SLP143
T01501056 53027





000
SAUS44 KMRX 260255
MTRGDP
METAR KGDP 260251Z AUTO 25014KT 10SM CLR 15/M06 A3009 RMK AO2 SLP143
T01501056 53027





000
SAUS44 KMRX 260157 COR
MTRGDP
METAR KGDP 260151Z AUTO 24011G20KT 10SM CLR 16/M06 A3005 RMK AO2 PK
WND 26030/0115 SLP131 T01561056





000
SAUS44 KMRX 260157 COR
MTRGDP
METAR KGDP 260151Z AUTO 24011G20KT 10SM CLR 16/M06 A3005 RMK AO2 PK
WND 26030/0115 SLP131 T01561056





000
SAUS44 KMRX 260156 COR
MTRGDP
METAR KGDP 260151Z AUTO 24011G20KT 10SM CLR 16/M06 A3005 RMK AO2 PK
WND 26030/0115 SLP131 T01561056





000
SAUS44 KMRX 260155
MTRGDP
METAR KGDP 260151Z AUTO 24011G20KT 10SM CLR 16/M06 A3005 RMK AO2 PK
WND 26030/0115 SLP131 T01561056





000
SAUS44 KMRX 260057 COR
MTRGDP
METAR KGDP 260051Z AUTO 24023G30KT 10SM CLR 17/M06 A3001 RMK AO2 PK
WND 26035/0014 SLP110 T01671056





000
SAUS44 KMRX 260056 COR
MTRGDP
METAR KGDP 260051Z AUTO 24023G30KT 10SM CLR 17/M06 A3001 RMK AO2 PK
WND 26035/0014 SLP110 T01671056





000
SAUS44 KMRX 260055
MTRGDP
METAR KGDP 260051Z AUTO 24023G30KT 10SM CLR 17/M06 A3001 RMK AO2 PK
WND 26035/0014 SLP110 T01671056





000
SAUS44 KMRX 252357 COR
MTRGDP
METAR KGDP 252351Z AUTO 25028G38KT 10SM CLR 19/M06 A3000 RMK AO2 PK
WND 25038/2347 SLP104 T01891061 10228 20183 51004





000
SAUS44 KMRX 252357 COR
MTRGDP
METAR KGDP 252351Z AUTO 25028G38KT 10SM CLR 19/M06 A3000 RMK AO2 PK
WND 25038/2347 SLP104 T01891061 10228 20183 51004





000
SAUS44 KMRX 252356 COR
MTRGDP
METAR KGDP 252351Z AUTO 25028G38KT 10SM CLR 19/M06 A3000 RMK AO2 PK
WND 25038/2347 SLP104 T01891061 10228 20183 51004





000
SAUS44 KMRX 252356 COR
MTRGDP
METAR KGDP 252351Z AUTO 25028G38KT 10SM CLR 19/M06 A3000 RMK AO2 PK
WND 25038/2347 SLP104 T01891061 10228 20183 51004





000
SAUS44 KMRX 252355
MTRGDP
METAR KGDP 252351Z AUTO 25028G38KT 10SM CLR 19/M06 A3000 RMK AO2 PK
WND 25038/2347 SLP104 T01891061 10228 20183 51004





000
SAUS44 KMRX 252355
MTRGDP
METAR KGDP 252351Z AUTO 25028G38KT 10SM CLR 19/M06 A3000 RMK AO2 PK
WND 25038/2347 SLP104 T01891061 10228 20183 51004





000
SAUS44 KMRX 252255
MTRGDP
METAR KGDP 252251Z AUTO 25031G41KT 10SM CLR 19/M07 A2999 RMK AO2 PK
WND 26043/2225 SLP102 T01891072





000
SAUS44 KMRX 252156 COR
MTRGDP
METAR KGDP 252151Z AUTO 24024G41KT 10SM CLR 21/M07 A2999 RMK AO2 PK
WND 25044/2105 SLP092 T02111072





000
SAUS44 KMRX 252155
MTRGDP
METAR KGDP 252151Z AUTO 24024G41KT 10SM CLR 21/M07 A2999 RMK AO2 PK
WND 25044/2105 SLP092 T02111072





000
SAUS44 KMRX 252155 COR
MTRGDP
METAR KGDP 252151Z AUTO 24024G41KT 10SM CLR 21/M07 A2999 RMK AO2 PK
WND 25044/2105 SLP092 T02111072





000
SAUS44 KMRX 252057 COR
MTRGDP
METAR KGDP 252051Z AUTO 25030G41KT 10SM CLR 22/M07 A2998 RMK AO2 PK
WND 25046/2000 SLP090 T02171067 56019





000
SAUS44 KMRX 252056 COR
MTRGDP
METAR KGDP 252051Z AUTO 25030G41KT 10SM CLR 22/M07 A2998 RMK AO2 PK
WND 25046/2000 SLP090 T02171067 56019





000
SAUS44 KMRX 252055
MTRGDP
METAR KGDP 252051Z AUTO 25030G41KT 10SM CLR 22/M07 A2998 RMK AO2 PK
WND 25046/2000 SLP090 T02171067 56019





000
SAUS44 KMRX 251956 COR
MTRGDP
METAR KGDP 251951Z AUTO 26031G38KT 10SM CLR 23/M07 A3001 RMK AO2 PK
WND 25042/1920 SLP094 T02281067





000
SAUS44 KMRX 251956 COR
MTRGDP
METAR KGDP 251951Z AUTO 26031G38KT 10SM CLR 23/M07 A3001 RMK AO2 PK
WND 25042/1920 SLP094 T02281067





000
SAUS44 KMRX 251955
MTRGDP
METAR KGDP 251951Z AUTO 26031G38KT 10SM CLR 23/M07 A3001 RMK AO2 PK
WND 25042/1920 SLP094 T02281067





000
SAUS44 KMRX 251955
MTRGDP
METAR KGDP 251951Z AUTO 26031G38KT 10SM CLR 23/M07 A3001 RMK AO2 PK
WND 25042/1920 SLP094 T02281067





000
SAUS44 KMRX 251855
MTRGDP
METAR KGDP 251851Z AUTO 25035G41KT 10SM CLR 19/M07 A3002 RMK AO2 PK
WND 25041/1849 SLP103 T01941072





000
SAUS44 KMRX 251855
MTRGDP
METAR KGDP 251851Z AUTO 25035G41KT 10SM CLR 19/M07 A3002 RMK AO2 PK
WND 25041/1849 SLP103 T01941072





000
SAUS44 KMRX 251758 COR
MTRGDP
METAR KGDP 251751Z AUTO 25024G37KT 10SM CLR 21/M05 A3005 RMK AO2 PK
WND 25038/1717 SLP109 T02061050 10206 20100 58003





000
SAUS44 KMRX 251758 COR
MTRGDP
METAR KGDP 251751Z AUTO 25024G37KT 10SM CLR 21/M05 A3005 RMK AO2 PK
WND 25038/1717 SLP109 T02061050 10206 20100 58003





000
SAUS44 KMRX 251757 COR
MTRGDP
METAR KGDP 251751Z AUTO 25024G37KT 10SM CLR 21/M05 A3005 RMK AO2 PK
WND 25038/1717 SLP109 T02061050 10206 20100 58003





000
SAUS44 KMRX 251757 COR
MTRGDP
METAR KGDP 251751Z AUTO 25024G37KT 10SM CLR 21/M05 A3005 RMK AO2 PK
WND 25038/1717 SLP109 T02061050 10206 20100 58003





000
SAUS44 KMRX 251756
MTRGDP
METAR KGDP 251751Z AUTO 25024G37KT 10SM CLR 21/M05 A3005 RMK AO2 PK
WND 25038/1717 SLP109 T02061050 10206 20100 58003





000
SAUS44 KMRX 251756
MTRGDP
METAR KGDP 251751Z AUTO 25024G37KT 10SM CLR 21/M05 A3005 RMK AO2 PK
WND 25038/1717 SLP109 T02061050 10206 20100 58003





000
SAUS44 KMRX 251657 COR
MTRGDP
METAR KGDP 251651Z AUTO 24021G29KT 10SM CLR 19/M04 A3006 RMK AO2 PK
WND 24029/1642 SLP117 T01891044





000
SAUS44 KMRX 251657 COR
MTRGDP
METAR KGDP 251651Z AUTO 24021G29KT 10SM CLR 19/M04 A3006 RMK AO2 PK
WND 24029/1642 SLP117 T01891044





000
SAUS44 KMRX 251656 COR
MTRGDP
METAR KGDP 251651Z AUTO 24021G29KT 10SM CLR 19/M04 A3006 RMK AO2 PK
WND 24029/1642 SLP117 T01891044





000
SAUS44 KMRX 251656 COR
MTRGDP
METAR KGDP 251651Z AUTO 24021G29KT 10SM CLR 19/M04 A3006 RMK AO2 PK
WND 24029/1642 SLP117 T01891044





000
SAUS44 KMRX 251655
MTRGDP
METAR KGDP 251651Z AUTO 24021G29KT 10SM CLR 19/M04 A3006 RMK AO2 PK
WND 24029/1642 SLP117 T01891044





000
SAUS44 KMRX 251556 COR
MTRGDP
METAR KGDP 251551Z AUTO 21013KT 10SM CLR 14/M04 A3007 RMK AO2 SLP126
T01391039





000
SAUS44 KMRX 251555
MTRGDP
METAR KGDP 251551Z AUTO 21013KT 10SM CLR 14/M04 A3007 RMK AO2 SLP126
T01391039





000
SAUS44 KMRX 251455
MTRGDP
METAR KGDP 251451Z AUTO 23012KT 10SM CLR 12/M04 A3006 RMK AO2 SLP127
T01171044 53012





000
SAUS44 KMRX 251455
MTRGDP
METAR KGDP 251451Z AUTO 23012KT 10SM CLR 12/M04 A3006 RMK AO2 SLP127
T01171044 53012





000
SAUS44 KMRX 251357 COR
MTRGDP
METAR KGDP 251351Z AUTO 20010KT 10SM CLR 10/M05 A3005 RMK AO2 SLP124
T01001050





000
SAUS44 KMRX 251357 COR
MTRGDP
METAR KGDP 251351Z AUTO 20010KT 10SM CLR 10/M05 A3005 RMK AO2 SLP124
T01001050





000
SAUS44 KMRX 251356 COR
MTRGDP
METAR KGDP 251351Z AUTO 20010KT 10SM CLR 10/M05 A3005 RMK AO2 SLP124
T01001050





000
SAUS44 KMRX 251355
MTRGDP
METAR KGDP 251351Z AUTO 20010KT 10SM CLR 10/M05 A3005 RMK AO2 SLP124
T01001050





000
SAUS44 KMRX 251255
MTRGDP
METAR KGDP 251251Z AUTO 22013KT 10SM CLR 11/M05 A3003 RMK AO2 SLP111
T01061050 $





000
SAUS44 KMRX 251255
MTRGDP
METAR KGDP 251251Z AUTO 22013KT 10SM CLR 11/M05 A3003 RMK AO2 SLP111
T01061050 $





000
SAUS44 KMRX 251155
MTRGDP
METAR KGDP 251151Z AUTO 23012KT 10SM CLR 11/M05 A3002 RMK AO2 SLP107
T01061050 10156 20106 53001





000
SAUS44 KMRX 251155
MTRGDP
METAR KGDP 251151Z AUTO 23012KT 10SM CLR 11/M05 A3002 RMK AO2 SLP107
T01061050 10156 20106 53001





000
SAUS44 KMRX 251057 COR
MTRGDP
METAR KGDP 251051Z AUTO 23015KT 10SM CLR 11/M05 A3001 RMK AO2 SLP100
T01111050





000
SAUS44 KMRX 251057 COR
MTRGDP
METAR KGDP 251051Z AUTO 23015KT 10SM CLR 11/M05 A3001 RMK AO2 SLP100
T01111050





000
SAUS44 KMRX 251056 COR
MTRGDP
METAR KGDP 251051Z AUTO 23015KT 10SM CLR 11/M05 A3001 RMK AO2 SLP100
T01111050





000
SAUS44 KMRX 251056 COR
MTRGDP
METAR KGDP 251051Z AUTO 23015KT 10SM CLR 11/M05 A3001 RMK AO2 SLP100
T01111050





000
SAUS44 KMRX 251055
MTRGDP
METAR KGDP 251051Z AUTO 23015KT 10SM CLR 11/M05 A3001 RMK AO2 SLP100
T01111050





000
SAUS44 KMRX 251055
MTRGDP
METAR KGDP 251051Z AUTO 23015KT 10SM CLR 11/M05 A3001 RMK AO2 SLP100
T01111050





000
SAUS44 KMRX 250955
MTRGDP
METAR KGDP 250951Z AUTO 24016KT 10SM CLR 13/M06 A3001 RMK AO2 SLP094
T01281056





000
SAUS44 KMRX 250855
MTRGDP
METAR KGDP 250851Z AUTO 26013G19KT 10SM CLR 12/M06 A3002 RMK AO2
SLP097 T01221056 58009





000
SAUS44 KMRX 250855
MTRGDP
METAR KGDP 250851Z AUTO 26013G19KT 10SM CLR 12/M06 A3002 RMK AO2
SLP097 T01221056 58009





000
SAUS44 KMRX 250754
MTRGDP
METAR KGDP 250751Z AUTO 25014KT 10SM CLR 13/M06 A3004 RMK AO2 SLP102
T01331061





000
SAUS44 KMRX 250655
MTRGDP
METAR KGDP 250651Z AUTO 25016KT 10SM CLR 15/M07 A3004 RMK AO2 SLP103
T01501072 402440100





000
SAUS44 KMRX 250655
MTRGDP
METAR KGDP 250651Z AUTO 25016KT 10SM CLR 15/M07 A3004 RMK AO2 SLP103
T01501072 402440100





000
SAUS44 KMRX 250557 COR
MTRGDP
METAR KGDP 250551Z AUTO 23016KT 10SM CLR 16/M08 A3005 RMK AO2 SLP112
T01561078 10217 20156 50002





000
SAUS44 KMRX 250557 COR
MTRGDP
METAR KGDP 250551Z AUTO 23016KT 10SM CLR 16/M08 A3005 RMK AO2 SLP112
T01561078 10217 20156 50002





000
SAUS44 KMRX 250556 COR
MTRGDP
METAR KGDP 250551Z AUTO 23016KT 10SM CLR 16/M08 A3005 RMK AO2 SLP112
T01561078 10217 20156 50002





000
SAUS44 KMRX 250556 COR
MTRGDP
METAR KGDP 250551Z AUTO 23016KT 10SM CLR 16/M08 A3005 RMK AO2 SLP112
T01561078 10217 20156 50002





000
SAUS44 KMRX 250555
MTRGDP
METAR KGDP 250551Z AUTO 23016KT 10SM CLR 16/M08 A3005 RMK AO2 SLP112
T01561078 10217 20156 50002





000
SAUS44 KMRX 250555
MTRGDP
METAR KGDP 250551Z AUTO 23016KT 10SM CLR 16/M08 A3005 RMK AO2 SLP112
T01561078 10217 20156 50002





000
SAUS44 KMRX 250457 COR
MTRGDP
METAR KGDP 250451Z AUTO 23011KT 10SM CLR 16/M08 A3005 RMK AO2 SLP115
T01611083





000
SAUS44 KMRX 250457 COR
MTRGDP
METAR KGDP 250451Z AUTO 23011KT 10SM CLR 16/M08 A3005 RMK AO2 SLP115
T01611083





000
SAUS44 KMRX 250456 COR
MTRGDP
METAR KGDP 250451Z AUTO 23011KT 10SM CLR 16/M08 A3005 RMK AO2 SLP115
T01611083





000
SAUS44 KMRX 250456 COR
MTRGDP
METAR KGDP 250451Z AUTO 23011KT 10SM CLR 16/M08 A3005 RMK AO2 SLP115
T01611083





000
SAUS44 KMRX 250455
MTRGDP
METAR KGDP 250451Z AUTO 23011KT 10SM CLR 16/M08 A3005 RMK AO2 SLP115
T01611083





000
SAUS44 KMRX 250455
MTRGDP
METAR KGDP 250451Z AUTO 23011KT 10SM CLR 16/M08 A3005 RMK AO2 SLP115
T01611083





000
SAUS44 KMRX 250357 COR
MTRGDP
METAR KGDP 250351Z AUTO 25011KT 10SM CLR 17/M09 A3006 RMK AO2 SLP119
T01671089





000
SAUS44 KMRX 250356 COR
MTRGDP
METAR KGDP 250351Z AUTO 25011KT 10SM CLR 17/M09 A3006 RMK AO2 SLP119
T01671089





000
SAUS44 KMRX 250355
MTRGDP
METAR KGDP 250351Z AUTO 25011KT 10SM CLR 17/M09 A3006 RMK AO2 SLP119
T01671089





000
SAUS44 KMRX 250254
MTRGDP
METAR KGDP 250251Z AUTO 24017G24KT 10SM CLR 17/M08 A3004 RMK AO2 PK
WND 25027/0221 SLP121 T01721083 53004





000
SAUS44 KMRX 250254
MTRGDP
METAR KGDP 250251Z AUTO 24017G24KT 10SM CLR 17/M08 A3004 RMK AO2 PK
WND 25027/0221 SLP121 T01721083 53004





000
SAUS44 KMRX 250155
MTRGDP
METAR KGDP 250151Z AUTO 23019G27KT 10SM CLR 17/M08 A3003 RMK AO2 PK
WND 24028/0052 SLP119 T01721078





000
SAUS44 KMRX 250155
MTRGDP
METAR KGDP 250151Z AUTO 23019G27KT 10SM CLR 17/M08 A3003 RMK AO2 PK
WND 24028/0052 SLP119 T01721078





000
SAUS44 KMRX 250054
MTRGDP
METAR KGDP 250051Z AUTO 24020G29KT 10SM CLR 20/M08 A3002 RMK AO2 PK
WND 24032/0015 SLP110 T02001083





000
SAUS44 KMRX 250054
MTRGDP
METAR KGDP 250051Z AUTO 24020G29KT 10SM CLR 20/M08 A3002 RMK AO2 PK
WND 24032/0015 SLP110 T02001083





000
SAUS44 KMRX 242355
MTRGDP
METAR KGDP 242351Z AUTO 24023G31KT 10SM CLR 22/M11 A3003 RMK AO2 PK
WND 24032/2324 SLP105 T02171111 10244 20200 56016





000
SAUS44 KMRX 242355
MTRGDP
METAR KGDP 242351Z AUTO 24023G31KT 10SM CLR 22/M11 A3003 RMK AO2 PK
WND 24032/2324 SLP105 T02171111 10244 20200 56016





000
SAUS44 KMRX 242257 COR
MTRGDP
METAR KGDP 242251Z AUTO 25019G29KT 10SM CLR 23/M08 A3004 RMK AO2 PK
WND 24029/2244 SLP109 T02331083





000
SAUS44 KMRX 242257 COR
MTRGDP
METAR KGDP 242251Z AUTO 25019G29KT 10SM CLR 23/M08 A3004 RMK AO2 PK
WND 24029/2244 SLP109 T02331083





000
SAUS44 KMRX 242256 COR
MTRGDP
METAR KGDP 242251Z AUTO 25019G29KT 10SM CLR 23/M08 A3004 RMK AO2 PK
WND 24029/2244 SLP109 T02331083





000
SAUS44 KMRX 242255
MTRGDP
METAR KGDP 242251Z AUTO 25019G29KT 10SM CLR 23/M08 A3004 RMK AO2 PK
WND 24029/2244 SLP109 T02331083





    US Dept of Commerce
    National Oceanic and Atmospheric Administration
    National Weather Service
    1325 East West Highway
    Silver Spring, MD 20910
    Page Author: NWS Internet Services Team
Disclaimer
Information Quality
Credits
Glossary
Privacy Policy
Freedom of Information Act (FOIA)
About Us
Career Opportunities